Weather in Vyazovka

Russia / Saratov Oblast     51°48′25″N   45°47′10″E
temp.,
°C
wind,
m/s
gust,
m/s
humid.,
%
clouds,
%
prec.,
mm/h
press.,
hPa
HPBL,
m
6 march, sat
sat601:00−8wnw349088 0.0 101556
04:00−8nw339090 0.0 101658
07:00−10nw228898 0.0 101621
10:00−7n008699 0.0 101736
13:00−5ene2284100 0.0 1016257
16:00−4ene2289100 0.0 1015289
19:00−7ese1194100 0.0 101421
22:00−7nnw0096100 0.1 101421
7 march, sun
sun701:00−9nnw119694 0.1 101321
04:00−9wnw229592 0.3 101422
07:00−11nw3594100 0.1 1015106
10:00−10wnw599268 0.1 1016263
13:00−7wsw611872 0.0 1015533
16:00−6sw7128325 0.0 1013877
19:00−6ssw61583100 0.0 1009745
22:00−4sw91779100 0.0 10061029
8 march, mon
mon801:00−4wsw111989100 0.2 1003963
04:00−3wsw7159498 0.6 1003830
07:00−4wsw5138598 0.2 1004464
10:00−4wsw7147978 0.2 1005857
13:00−1wsw815750 0.0 10041358
16:000wsw8129046 1.4 10041126
19:00−5wnw51180100 1.4 1005576
22:00−10wnw5118797 1.4 1008210
9 march, tue
tue901:00−13w59930 0.0 1009146
04:00−14w599412 0.0 1011160
07:00−15w489438 0.0 1012141
10:00−13wnw589339 0.0 1013235
13:00−9wnw469018 0.0 1014323
16:00−9wnw458842 0.0 1014503
19:00−12wnw3493100 0.0 101567
22:00−15nw349497 0.0 101768
10 march, wed
wed1001:00−15nw359499 0.0 1017102
04:00−15nw479499 0.0 1018151
07:00−20nw479462 0.0 1019127
10:00−18nw599031 0.0 1021324
13:00−17nw58862 0.0 1023520
16:00−16wnw698621 0.0 1023552
19:00−20wnw489368 0.0 1024152
22:00−23nw479434 0.0 1026125